Notices

What's New in latest Release from April 7th, 2021:

- Updated Glossary, including Speed of Maximum Gust, and Total Hourly Precipitation

- Updated national and regional climate services offices contacts and prices information

- Addition of station inventory lists for 1981-2010, 1971-2000, and 1961-1990 Normals.

If you haven't already, please take our survey and provide feedback about our website: https://eccc.sondage-survey.ca/f/LanguageSelection.aspx?s=442ca660-fcf1-47c0-95a9-59707d6fd709

Hourly Data Report for January 31, 2021

SHEARWATER RCS
NOVA SCOTIA
Current Station Operator: ECCC - MSC

44°37'47.000" N
63°30'48.000" W
24.00 m
8205092
71264
AAW

Download Data

Hourly Data (January 2021)
Hourly Data Report for January 31, 2021
TIME
LST
Temp Definition
°C
Dew Point Definition
°C
Rel Hum Definition
%
Precip. Amount Definition
mm

Wind Dir Definition
10's deg

Wind Spd Definition
km/h
Visibility Definition
km
Stn Press Definition
kPa
Hmdx Definition


Wind Chill Definition


Weather Definition


00:00 -9.6 -13.5 73 0.0 32 7   101.51   -14 LegendNANA
01:00 -9.6 -13.9 71 0.0 32 6   101.51   -13 LegendNANA
02:00 -9.4 -14.1 69 0.0 32 9   101.52   -14 LegendNANA
03:00 -9.9 -14.0 72 0.0 32 7   101.55   -14 LegendNANA
04:00 -9.2 -12.8 75 0.0 31 12   101.57   -15 LegendNANA
05:00 -9.0 -12.0 79 0.0 31 12   101.63   -15 LegendNANA
06:00 -8.1 -11.2 79 0.0 31 10   101.71   -13 LegendNANA
07:00 -7.5 -10.2 81 0.0 31 11   101.76   -13 LegendNANA
08:00 -7.2 -9.4 84 0.0 31 12   101.79   -13 LegendNANA
09:00 -6.4 -9.2 81 0.0 31 13   101.80   -12 LegendNANA
10:00 -5.2 -8.1 80 0.0 33 16   101.81   -11 LegendNANA
11:00 -4.3 -7.5 78 0.0 32 17   101.81   -10 LegendNANA
12:00 -2.4 -6.6 73 0.0 33 20   101.81   -8 LegendNANA
13:00 -2.0 -6.6 71 0.0 33 18   101.77   -7 LegendNANA
14:00 -1.3 -5.8 71 0.0 33 17   101.78   -6 LegendNANA
15:00 -0.7 -5.4 70 0.0 33 17   101.83   -6 LegendNANA
16:00 -1.0 -5.4 72 0.0 35 19   101.88   -6 LegendNANA
17:00 -1.3 -5.5 73 0.0 35 13   101.94   -6 LegendNANA
18:00 -1.8 -5.3 77 0.0 35 18   102.00   -7 LegendNANA
19:00 -1.8 -5.2 77 0.0 34 14   102.08   -6 LegendNANA
20:00 -1.9 -5.1 78 0.0 35 12   102.13   -6 LegendNANA
21:00 -2.0 -5.1 80 0.0 35 14   102.17   -7 LegendNANA
22:00 -2.2 -5.0 81 0.0 35 10   102.17   -6 LegendNANA
23:00 -2.5 -5.3 81 0.0 35 13   102.18   -7 LegendNANA

Notes on Data Quality.

Legend

  • E = Estimated
  • M = Missing
  • NA = Not Available*
  • [empty] = Indicates an unobserved value
Date modified: